Regional Weather Roundup
Issued by NWS

Home | Current Version | Previous Version | Graphics & Text | Print | Product List | Glossary On
Versions: 1 2 3 4 5 6 7 8 9 10 11 12 13 14 15 16 17 18 19 20 21 22 23 24 25 26 27 28 29 30 31 32 33 34 35 36 37 38 39 40 41 42 43 44 45 46 47 48 49 50
000
ASUS45 KBOU 262107
RWRCO

WEATHER ROUNDUP FOR COLORADO
NATIONAL WEATHER SERVICE DENVER/BOULDER CO
200 PM MST MON JAN 26 2015

NOTE: "FAIR" INDICATES FEW OR NO CLOUDS BELOW 12000 FEET WITH NO
SIGNIFICANT WEATHER AND/OR OBSTRUCTIONS TO VISIBILITY.

COZ001>005-013-030-031-262200-
...NORTHWEST COLORADO...

CITY           SKY/WX    TMP DP  RH WIND       PRES   REMARKS
CRAIG          SUNNY     38  26  62 SW3       30.37F
HAYDEN         SUNNY     41  23  48 S7        30.36F
MEEKER         SUNNY     41  25  53 CALM      30.36F
MOUNT WERNER   NOT AVBL
STEAMBOAT SPGS SUNNY     39  24  55 CALM      30.37F
WALDEN         SUNNY     41  23  48 SE5       30.41F
$$

COZ006>008-011-262200-
...WEST CENTRAL VALLEYS...

CITY           SKY/WX    TMP DP  RH WIND       PRES   REMARKS
GRAND JUNCTION SUNNY     56  26  31 S9        30.29F
MONTROSE       SUNNY     53  23  31 VRB5      30.33F
EAGLE          SUNNY     46  25  42 CALM      30.42F
RIFLE          SUNNY     52  25  35 SE3       30.33F
DELTA          SUNNY     55  25  31 CALM      30.32F
NUCLA          SUNNY     54  23  30 N3        30.32F
$$

COZ017>023-064>068-262200-
...SOUTHWEST COLORADO...

CITY           SKY/WX    TMP DP  RH WIND       PRES   REMARKS
DURANGO        SUNNY     56  22  26 CALM      30.30F
CORTEZ         SUNNY     56  27  32 SW13      30.29F
PAGOSA SPRINGS SUNNY     60  12  15 CALM      30.34F
TELLURIDE      SUNNY     57  10  15 CALM      30.40F
WOLF CREEK PAS NOT AVBL
$$

COZ009-010-012-014-032>034-037-058>063-262200-
...CENTRAL COLORADO...

CITY           SKY/WX    TMP DP  RH WIND       PRES   REMARKS
ASPEN          SUNNY     44  23  43 NW6       30.38F
BUENA VISTA    SUNNY     58  17  19 CALM      30.37F
COPPER MTN     SUNNY     45  10  24 NW3       30.56F
BERTHOUD PASS  FAIR      30  27  86 CALM      30.59F
COTTONWOOD PAS SUNNY     55   9  15 SE6       30.46F
GUNNISON       SUNNY     21  12  68 CALM      30.49F
KREMMLING      SUNNY     30  19  64 CALM      30.47F
LEADVILLE      SUNNY     46  16  30 SW8       30.44F
SALIDA         SUNNY     60  16  18 CALM      30.42F
SUNLIGHT       SUNNY     45  18  33 E3        30.52F
WILKERSON PASS SUNNY     45  12  26 MISG      30.54F
$$

COZ069>075-262200-
...SAN LUIS VALLEY/SANGRE DE CRISTO MOUNTAINS...

CITY           SKY/WX    TMP DP  RH WIND       PRES   REMARKS
ALAMOSA        SUNNY     49  20  31 CALM      30.39F
LA VETA PASS   NOT AVBL
SAGUACHE       SUNNY     39  23  52 E5        30.42F
$$

COZ035-036-038>040-262200-
...NORTHERN COLORADO FRONT RANGE...

CITY           SKY/WX    TMP DP  RH WIND       PRES   REMARKS
DENVER INTL AP MOSUNNY   70  19  14 NE9       30.21F
DMNS CITY PARK   N/A     72  16  12 NE10      30.20F
AURORA         MOSUNNY   69  19  15 NE8       30.23F
FRONT RANGE AP NOT AVBL
ERIE MUNI ARPT SUNNY     73  15  11 NE7       30.18F
BOULDER MUN AP SUNNY     72  21  15 E5        30.18F
CENTENNIAL     SUNNY     67  18  15 NE9       30.24F
BROOMFIELD     MOSUNNY   72  19  14 NE7       30.22F
FORT COLLINS   SUNNY     72  28  20 SE5       30.17F
LONGMONT       SUNNY     77  20  11 CALM      30.19F
$$

COZ041-046-047-076>085-087-088-262200-
...PIKES PEAK/PALMER DIVIDE AND SOUTHERN FOOTHILLS...

CITY           SKY/WX    TMP DP  RH WIND       PRES   REMARKS
COLO. SPRINGS  SUNNY     65  23  20 S7        30.28F
A. F. ACADEMY  SUNNY     64  18  17 N8        30.28F
ELLICOTT       SUNNY    N/A N/A N/A SW3       30.27F
FALCON         SUNNY     63  19  18 N10       30.31F
FORT CARSON    SUNNY     65  28  24 S5        30.25F
LIMON          SUNNY     67  23  19 N14G22    30.22F
MONUMENT HILL  SUNNY     59  21  23 N6        30.30F
TRINIDAD       SUNNY     61  28  28 SE6       30.28F
$$

COZ042>045-048>051-090-091-262200-
...NORTHEAST COLORADO...

CITY           SKY/WX    TMP DP  RH WIND       PRES   REMARKS
GREELEY ARPT   SUNNY     70  30  23 S3        30.14F
AKRON          SUNNY     62  30  29 W8        30.17F
BURLINGTON     SUNNY     67  29  24 NW12      30.17F
WRAY           SUNNY     69  30  23 NW10G17   30.14S
STERLING       SUNNY     72  36  26 N9        30.14S
HOLYOKE        SUNNY     72  30  21 NW18G24   30.12F
FORT MORGAN    SUNNY     66  28  23 W3        30.17F
$$

COZ086-089-092>099-262200-
...SOUTHEAST COLORADO...

CITY           SKY/WX    TMP DP  RH WIND       PRES   REMARKS
PUEBLO         SUNNY     69  25  19 W7        30.21F
LA JUNTA       SUNNY     69  30  23 SW6       30.20F
LAMAR          SUNNY     69  32  25 NW8       30.16F
SPRINGFIELD      N/A     67  27  22 NW13      30.20F
$$



USA.gov is the U.S. government's official web portal to all federal, state and local government web resources and services.